locationName,lineName,date,time,countIn,countOut
��Ƃ�̍L��,�����w����,2022/9/1,0:00,13,7
��Ƃ�̍L��,�����w����,2022/9/1,1:00,31,9
��Ƃ�̍L��,�����w����,2022/9/1,2:00,19,3
��Ƃ�̍L��,�����w����,2022/9/1,3:00,11,7
��Ƃ�̍L��,�����w����,2022/9/1,4:00,18,8
��Ƃ�̍L��,�����w����,2022/9/1,5:00,23,12
��Ƃ�̍L��,�����w����,2022/9/1,6:00,32,28
��Ƃ�̍L��,�����w����,2022/9/1,7:00,21,88
��Ƃ�̍L��,�����w����,2022/9/1,8:00,30,89
��Ƃ�̍L��,�����w����,2022/9/1,9:00,49,86
��Ƃ�̍L��,�����w����,2022/9/1,10:00,46,84
��Ƃ�̍L��,�����w����,2022/9/1,11:00,38,38
��Ƃ�̍L��,�����w����,2022/9/1,12:00,84,80
��Ƃ�̍L��,�����w����,2022/9/1,13:00,46,61
��Ƃ�̍L��,�����w����,2022/9/1,14:00,50,68
��Ƃ�̍L��,�����w����,2022/9/1,15:00,55,58
��Ƃ�̍L��,�����w����,2022/9/1,16:00,57,76
��Ƃ�̍L��,�����w����,2022/9/1,17:00,46,51
��Ƃ�̍L��,�����w����,2022/9/1,18:00,151,135
��Ƃ�̍L��,�����w����,2022/9/1,19:00,73,93
��Ƃ�̍L��,�����w����,2022/9/1,20:00,30,39
��Ƃ�̍L��,�����w����,2022/9/1,21:00,102,141
��Ƃ�̍L��,�����w����,2022/9/1,22:00,95,148
��Ƃ�̍L��,�����w����,2022/9/1,23:00,18,13
��Ƃ�̍L��,�����w����,2022/9/2,0:00,2,5
��Ƃ�̍L��,�����w����,2022/9/2,1:00,6,0
��Ƃ�̍L��,�����w����,2022/9/2,2:00,9,1
��Ƃ�̍L��,�����w����,2022/9/2,3:00,9,8
��Ƃ�̍L��,�����w����,2022/9/2,4:00,6,6
��Ƃ�̍L��,�����w����,2022/9/2,5:00,15,13
��Ƃ�̍L��,�����w����,2022/9/2,6:00,28,36
��Ƃ�̍L��,�����w����,2022/9/2,7:00,34,118
��Ƃ�̍L��,�����w����,2022/9/2,8:00,40,143
��Ƃ�̍L��,�����w����,2022/9/2,9:00,56,92
��Ƃ�̍L��,�����w����,2022/9/2,10:00,53,102
��Ƃ�̍L��,�����w����,2022/9/2,11:00,79,75
��Ƃ�̍L��,�����w����,2022/9/2,12:00,66,100
��Ƃ�̍L��,�����w����,2022/9/2,13:00,73,103
��Ƃ�̍L��,�����w����,2022/9/2,14:00,69,95
��Ƃ�̍L��,�����w����,2022/9/2,15:00,73,100
��Ƃ�̍L��,�����w����,2022/9/2,16:00,97,75
��Ƃ�̍L��,�����w����,2022/9/2,17:00,54,79
��Ƃ�̍L��,�����w����,2022/9/2,18:00,58,70
��Ƃ�̍L��,�����w����,2022/9/2,19:00,40,42
��Ƃ�̍L��,�����w����,2022/9/2,20:00,29,46
��Ƃ�̍L��,�����w����,2022/9/2,21:00,22,30
��Ƃ�̍L��,�����w����,2022/9/2,22:00,9,21
��Ƃ�̍L��,�����w����,2022/9/2,23:00,16,20
��Ƃ�̍L��,�����w����,2022/9/3,0:00,7,23
��Ƃ�̍L��,�����w����,2022/9/3,1:00,10,13
��Ƃ�̍L��,�����w����,2022/9/3,2:00,4,6
��Ƃ�̍L��,�����w����,2022/9/3,3:00,4,9
��Ƃ�̍L��,�����w����,2022/9/3,4:00,6,5
��Ƃ�̍L��,�����w����,2022/9/3,5:00,8,14
��Ƃ�̍L��,�����w����,2022/9/3,6:00,19,13
��Ƃ�̍L��,�����w����,2022/9/3,7:00,16,29
��Ƃ�̍L��,�����w����,2022/9/3,8:00,27,49
��Ƃ�̍L��,�����w����,2022/9/3,9:00,44,80
��Ƃ�̍L��,�����w����,2022/9/3,10:00,83,109
��Ƃ�̍L��,�����w����,2022/9/3,11:00,109,118
��Ƃ�̍L��,�����w����,2022/9/3,12:00,119,165
��Ƃ�̍L��,�����w����,2022/9/3,13:00,120,174
��Ƃ�̍L��,�����w����,2022/9/3,14:00,119,165
��Ƃ�̍L��,�����w����,2022/9/3,15:00,127,151
��Ƃ�̍L��,�����w����,2022/9/3,16:00,89,163
��Ƃ�̍L��,�����w����,2022/9/3,17:00,63,88
��Ƃ�̍L��,�����w����,2022/9/3,18:00,44,65
��Ƃ�̍L��,�����w����,2022/9/3,19:00,53,45
��Ƃ�̍L��,�����w����,2022/9/3,20:00,29,57
��Ƃ�̍L��,�����w����,2022/9/3,21:00,42,35
��Ƃ�̍L��,�����w����,2022/9/3,22:00,18,17
��Ƃ�̍L��,�����w����,2022/9/3,23:00,2,11
��Ƃ�̍L��,�����w����,2022/9/4,0:00,7,9
��Ƃ�̍L��,�����w����,2022/9/4,1:00,5,5
��Ƃ�̍L��,�����w����,2022/9/4,2:00,3,3
��Ƃ�̍L��,�����w����,2022/9/4,3:00,2,9
��Ƃ�̍L��,�����w����,2022/9/4,4:00,6,4
��Ƃ�̍L��,�����w����,2022/9/4,5:00,7,11
��Ƃ�̍L��,�����w����,2022/9/4,6:00,15,15
��Ƃ�̍L��,�����w����,2022/9/4,7:00,16,22
��Ƃ�̍L��,�����w����,2022/9/4,8:00,36,41
��Ƃ�̍L��,�����w����,2022/9/4,9:00,33,78
��Ƃ�̍L��,�����w����,2022/9/4,10:00,65,117
��Ƃ�̍L��,�����w����,2022/9/4,11:00,112,158
��Ƃ�̍L��,�����w����,2022/9/4,12:00,110,198
��Ƃ�̍L��,�����w����,2022/9/4,13:00,133,189
��Ƃ�̍L��,�����w����,2022/9/4,14:00,161,176
��Ƃ�̍L��,�����w����,2022/9/4,15:00,102,141
��Ƃ�̍L��,�����w����,2022/9/4,16:00,72,113
��Ƃ�̍L��,�����w����,2022/9/4,17:00,59,82
��Ƃ�̍L��,�����w����,2022/9/4,18:00,0,0
��Ƃ�̍L��,�����w����,2022/9/4,19:00,0,0
��Ƃ�̍L��,�����w����,2022/9/4,20:00,0,0
��Ƃ�̍L��,�����w����,2022/9/4,21:00,0,0
��Ƃ�̍L��,�����w����,2022/9/4,22:00,0,0
��Ƃ�̍L��,�����w����,2022/9/4,23:00,0,0
��Ƃ�̍L��,�����w����,2022/9/5,0:00,0,0
��Ƃ�̍L��,�����w����,2022/9/5,1:00,0,0
��Ƃ�̍L��,�����w����,2022/9/5,2:00,0,0
��Ƃ�̍L��,�����w����,2022/9/5,3:00,0,0
��Ƃ�̍L��,�����w����,2022/9/5,4:00,0,0
��Ƃ�̍L��,�����w����,2022/9/5,5:00,0,0
��Ƃ�̍L��,�����w����,2022/9/5,6:00,0,0
��Ƃ�̍L��,�����w����,2022/9/5,7:00,0,0
��Ƃ�̍L��,�����w����,2022/9/5,8:00,0,0
��Ƃ�̍L��,�����w����,2022/9/5,9:00,0,0
��Ƃ�̍L��,�����w����,2022/9/5,10:00,0,0
��Ƃ�̍L��,�����w����,2022/9/5,11:00,0,0
��Ƃ�̍L��,�����w����,2022/9/5,12:00,0,0
��Ƃ�̍L��,�����w����,2022/9/5,13:00,0,0
��Ƃ�̍L��,�����w����,2022/9/5,14:00,0,0
��Ƃ�̍L��,�����w����,2022/9/5,15:00,0,0
��Ƃ�̍L��,�����w����,2022/9/5,16:00,0,0
��Ƃ�̍L��,�����w����,2022/9/5,17:00,0,0
��Ƃ�̍L��,�����w����,2022/9/5,18:00,0,0
��Ƃ�̍L��,�����w����,2022/9/5,19:00,0,0
��Ƃ�̍L��,�����w����,2022/9/5,20:00,0,0
��Ƃ�̍L��,�����w����,2022/9/5,21:00,0,0
��Ƃ�̍L��,�����w����,2022/9/5,22:00,0,0
��Ƃ�̍L��,�����w����,2022/9/5,23:00,0,0
��Ƃ�̍L��,�����w����,2022/9/6,0:00,0,0
��Ƃ�̍L��,�����w����,2022/9/6,1:00,0,0
��Ƃ�̍L��,�����w����,2022/9/6,2:00,0,0
��Ƃ�̍L��,�����w����,2022/9/6,3:00,0,0
��Ƃ�̍L��,�����w����,2022/9/6,4:00,0,0
��Ƃ�̍L��,�����w����,2022/9/6,5:00,0,0
��Ƃ�̍L��,�����w����,2022/9/6,6:00,0,0
��Ƃ�̍L��,�����w����,2022/9/6,7:00,0,0
��Ƃ�̍L��,�����w����,2022/9/6,8:00,0,0
��Ƃ�̍L��,�����w����,2022/9/6,9:00,0,0
��Ƃ�̍L��,�����w����,2022/9/6,10:00,0,0
��Ƃ�̍L��,�����w����,2022/9/6,11:00,0,0
��Ƃ�̍L��,�����w����,2022/9/6,12:00,0,0
��Ƃ�̍L��,�����w����,2022/9/6,13:00,0,0
��Ƃ�̍L��,�����w����,2022/9/6,14:00,0,0
��Ƃ�̍L��,�����w����,2022/9/6,15:00,0,0
��Ƃ�̍L��,�����w����,2022/9/6,16:00,0,0
��Ƃ�̍L��,�����w����,2022/9/6,17:00,0,0
��Ƃ�̍L��,�����w����,2022/9/6,18:00,0,0
��Ƃ�̍L��,�����w����,2022/9/6,19:00,0,0
��Ƃ�̍L��,�����w����,2022/9/6,20:00,0,0
��Ƃ�̍L��,�����w����,2022/9/6,21:00,0,0
��Ƃ�̍L��,�����w����,2022/9/6,22:00,0,0
��Ƃ�̍L��,�����w����,2022/9/6,23:00,0,0
��Ƃ�̍L��,�����w����,2022/9/7,0:00,0,0
��Ƃ�̍L��,�����w����,2022/9/7,1:00,0,0
��Ƃ�̍L��,�����w����,2022/9/7,2:00,0,0
��Ƃ�̍L��,�����w����,2022/9/7,3:00,0,0
��Ƃ�̍L��,�����w����,2022/9/7,4:00,0,0
��Ƃ�̍L��,�����w����,2022/9/7,5:00,0,0
��Ƃ�̍L��,�����w����,2022/9/7,6:00,0,0
��Ƃ�̍L��,�����w����,2022/9/7,7:00,0,0
��Ƃ�̍L��,�����w����,2022/9/7,8:00,0,0
��Ƃ�̍L��,�����w����,2022/9/7,9:00,0,0
��Ƃ�̍L��,�����w����,2022/9/7,10:00,0,0
��Ƃ�̍L��,�����w����,2022/9/7,11:00,0,0
��Ƃ�̍L��,�����w����,2022/9/7,12:00,0,0
��Ƃ�̍L��,�����w����,2022/9/7,13:00,0,0
��Ƃ�̍L��,�����w����,2022/9/7,14:00,0,0
��Ƃ�̍L��,�����w����,2022/9/7,15:00,0,0
��Ƃ�̍L��,�����w����,2022/9/7,16:00,0,0
��Ƃ�̍L��,�����w����,2022/9/7,17:00,0,0
��Ƃ�̍L��,�����w����,2022/9/7,18:00,0,0
��Ƃ�̍L��,�����w����,2022/9/7,19:00,0,0
��Ƃ�̍L��,�����w����,2022/9/7,20:00,0,0
��Ƃ�̍L��,�����w����,2022/9/7,21:00,0,0
��Ƃ�̍L��,�����w����,2022/9/7,22:00,0,0
��Ƃ�̍L��,�����w����,2022/9/7,23:00,0,0
��Ƃ�̍L��,�����w����,2022/9/8,0:00,0,0
��Ƃ�̍L��,�����w����,2022/9/8,1:00,0,0
��Ƃ�̍L��,�����w����,2022/9/8,2:00,0,0
��Ƃ�̍L��,�����w����,2022/9/8,3:00,0,0
��Ƃ�̍L��,�����w����,2022/9/8,4:00,0,0
��Ƃ�̍L��,�����w����,2022/9/8,5:00,0,0
��Ƃ�̍L��,�����w����,2022/9/8,6:00,0,0
��Ƃ�̍L��,�����w����,2022/9/8,7:00,0,0
��Ƃ�̍L��,�����w����,2022/9/8,8:00,0,0
��Ƃ�̍L��,�����w����,2022/9/8,9:00,0,0
��Ƃ�̍L��,�����w����,2022/9/8,10:00,0,0
��Ƃ�̍L��,�����w����,2022/9/8,11:00,0,0
��Ƃ�̍L��,�����w����,2022/9/8,12:00,0,0
��Ƃ�̍L��,�����w����,2022/9/8,13:00,0,0
��Ƃ�̍L��,�����w����,2022/9/8,14:00,0,0
��Ƃ�̍L��,�����w����,2022/9/8,15:00,0,0
��Ƃ�̍L��,�����w����,2022/9/8,16:00,0,0
��Ƃ�̍L��,�����w����,2022/9/8,17:00,0,0
��Ƃ�̍L��,�����w����,2022/9/8,18:00,0,0
��Ƃ�̍L��,�����w����,2022/9/8,19:00,0,0
��Ƃ�̍L��,�����w����,2022/9/8,20:00,0,0
��Ƃ�̍L��,�����w����,2022/9/8,21:00,0,0
��Ƃ�̍L��,�����w����,2022/9/8,22:00,0,0
��Ƃ�̍L��,�����w����,2022/9/8,23:00,0,0
��Ƃ�̍L��,�����w����,2022/9/9,0:00,0,0
��Ƃ�̍L��,�����w����,2022/9/9,1:00,0,0
��Ƃ�̍L��,�����w����,2022/9/9,2:00,0,0
��Ƃ�̍L��,�����w����,2022/9/9,3:00,0,0
��Ƃ�̍L��,�����w����,2022/9/9,4:00,0,0
��Ƃ�̍L��,�����w����,2022/9/9,5:00,0,0
��Ƃ�̍L��,�����w����,2022/9/9,6:00,0,0
��Ƃ�̍L��,�����w����,2022/9/9,7:00,0,0
��Ƃ�̍L��,�����w����,2022/9/9,8:00,0,0
��Ƃ�̍L��,�����w����,2022/9/9,9:00,0,0
��Ƃ�̍L��,�����w����,2022/9/9,10:00,0,0
��Ƃ�̍L��,�����w����,2022/9/9,11:00,0,0
��Ƃ�̍L��,�����w����,2022/9/9,12:00,0,0
��Ƃ�̍L��,�����w����,2022/9/9,13:00,0,0
��Ƃ�̍L��,�����w����,2022/9/9,14:00,0,0
��Ƃ�̍L��,�����w����,2022/9/9,15:00,0,0
��Ƃ�̍L��,�����w����,2022/9/9,16:00,0,0
��Ƃ�̍L��,�����w����,2022/9/9,17:00,0,0
��Ƃ�̍L��,�����w����,2022/9/9,18:00,0,0
��Ƃ�̍L��,�����w����,2022/9/9,19:00,0,0
��Ƃ�̍L��,�����w����,2022/9/9,20:00,0,0
��Ƃ�̍L��,�����w����,2022/9/9,21:00,0,0
��Ƃ�̍L��,�����w����,2022/9/9,22:00,0,0
��Ƃ�̍L��,�����w����,2022/9/9,23:00,0,0
��Ƃ�̍L��,�����w����,2022/9/10,0:00,0,0
��Ƃ�̍L��,�����w����,2022/9/10,1:00,0,0
��Ƃ�̍L��,�����w����,2022/9/10,2:00,0,0
��Ƃ�̍L��,�����w����,2022/9/10,3:00,0,0
��Ƃ�̍L��,�����w����,2022/9/10,4:00,0,0
��Ƃ�̍L��,�����w����,2022/9/10,5:00,0,0
��Ƃ�̍L��,�����w����,2022/9/10,6:00,0,0
��Ƃ�̍L��,�����w����,2022/9/10,7:00,0,0
��Ƃ�̍L��,�����w����,2022/9/10,8:00,0,0
��Ƃ�̍L��,�����w����,2022/9/10,9:00,0,0
��Ƃ�̍L��,�����w����,2022/9/10,10:00,0,0
��Ƃ�̍L��,�����w����,2022/9/10,11:00,0,0
��Ƃ�̍L��,�����w����,2022/9/10,12:00,0,0
��Ƃ�̍L��,�����w����,2022/9/10,13:00,0,0
��Ƃ�̍L��,�����w����,2022/9/10,14:00,0,0
��Ƃ�̍L��,�����w����,2022/9/10,15:00,0,0
��Ƃ�̍L��,�����w����,2022/9/10,16:00,0,0
��Ƃ�̍L��,�����w����,2022/9/10,17:00,0,0
��Ƃ�̍L��,�����w����,2022/9/10,18:00,0,0
��Ƃ�̍L��,�����w����,2022/9/10,19:00,0,0
��Ƃ�̍L��,�����w����,2022/9/10,20:00,0,0
��Ƃ�̍L��,�����w����,2022/9/10,21:00,0,0
��Ƃ�̍L��,�����w����,2022/9/10,22:00,0,0
��Ƃ�̍L��,�����w����,2022/9/10,23:00,0,0
��Ƃ�̍L��,�����w����,2022/9/11,0:00,0,0
��Ƃ�̍L��,�����w����,2022/9/11,1:00,0,0
��Ƃ�̍L��,�����w����,2022/9/11,2:00,0,0
��Ƃ�̍L��,�����w����,2022/9/11,3:00,0,0
��Ƃ�̍L��,�����w����,2022/9/11,4:00,0,0
��Ƃ�̍L��,�����w����,2022/9/11,5:00,0,0
��Ƃ�̍L��,�����w����,2022/9/11,6:00,0,0
��Ƃ�̍L��,�����w����,2022/9/11,7:00,0,0
��Ƃ�̍L��,�����w����,2022/9/11,8:00,0,0
��Ƃ�̍L��,�����w����,2022/9/11,9:00,0,0
��Ƃ�̍L��,�����w����,2022/9/11,10:00,0,0
��Ƃ�̍L��,�����w����,2022/9/11,11:00,0,0
��Ƃ�̍L��,�����w����,2022/9/11,12:00,0,0
��Ƃ�̍L��,�����w����,2022/9/11,13:00,0,0
��Ƃ�̍L��,�����w����,2022/9/11,14:00,0,0
��Ƃ�̍L��,�����w����,2022/9/11,15:00,0,0
��Ƃ�̍L��,�����w����,2022/9/11,16:00,0,0
��Ƃ�̍L��,�����w����,2022/9/11,17:00,0,0
��Ƃ�̍L��,�����w����,2022/9/11,18:00,0,0
��Ƃ�̍L��,�����w����,2022/9/11,19:00,0,0
��Ƃ�̍L��,�����w����,2022/9/11,20:00,0,0
��Ƃ�̍L��,�����w����,2022/9/11,21:00,0,0
��Ƃ�̍L��,�����w����,2022/9/11,22:00,0,0
��Ƃ�̍L��,�����w����,2022/9/11,23:00,0,0
��Ƃ�̍L��,�����w����,2022/9/12,0:00,0,0
��Ƃ�̍L��,�����w����,2022/9/12,1:00,0,0
��Ƃ�̍L��,�����w����,2022/9/12,2:00,0,0
��Ƃ�̍L��,�����w����,2022/9/12,3:00,0,0
��Ƃ�̍L��,�����w����,2022/9/12,4:00,0,0
��Ƃ�̍L��,�����w����,2022/9/12,5:00,0,0
��Ƃ�̍L��,�����w����,2022/9/12,6:00,0,0
��Ƃ�̍L��,�����w����,2022/9/12,7:00,0,0
��Ƃ�̍L��,�����w����,2022/9/12,8:00,0,0
��Ƃ�̍L��,�����w����,2022/9/12,9:00,0,0
��Ƃ�̍L��,�����w����,2022/9/12,10:00,0,0
��Ƃ�̍L��,�����w����,2022/9/12,11:00,19,38
��Ƃ�̍L��,�����w����,2022/9/12,12:00,80,124
��Ƃ�̍L��,�����w����,2022/9/12,13:00,105,138
��Ƃ�̍L��,�����w����,2022/9/12,14:00,81,123
��Ƃ�̍L��,�����w����,2022/9/12,15:00,107,103
��Ƃ�̍L��,�����w����,2022/9/12,16:00,103,81
��Ƃ�̍L��,�����w����,2022/9/12,17:00,44,75
��Ƃ�̍L��,�����w����,2022/9/12,18:00,52,70
��Ƃ�̍L��,�����w����,2022/9/12,19:00,26,53
��Ƃ�̍L��,�����w����,2022/9/12,20:00,40,49
��Ƃ�̍L��,�����w����,2022/9/12,21:00,24,45
��Ƃ�̍L��,�����w����,2022/9/12,22:00,19,20
��Ƃ�̍L��,�����w����,2022/9/12,23:00,8,9
��Ƃ�̍L��,�����w����,2022/9/13,0:00,7,7
��Ƃ�̍L��,�����w����,2022/9/13,1:00,4,3
��Ƃ�̍L��,�����w����,2022/9/13,2:00,3,6
��Ƃ�̍L��,�����w����,2022/9/13,3:00,1,10
��Ƃ�̍L��,�����w����,2022/9/13,4:00,4,6
��Ƃ�̍L��,�����w����,2022/9/13,5:00,9,8
��Ƃ�̍L��,�����w����,2022/9/13,6:00,16,22
��Ƃ�̍L��,�����w����,2022/9/13,7:00,21,136
��Ƃ�̍L��,�����w����,2022/9/13,8:00,27,160
��Ƃ�̍L��,�����w����,2022/9/13,9:00,37,95
��Ƃ�̍L��,�����w����,2022/9/13,10:00,65,89
��Ƃ�̍L��,�����w����,2022/9/13,11:00,70,90
��Ƃ�̍L��,�����w����,2022/9/13,12:00,66,135
��Ƃ�̍L��,�����w����,2022/9/13,13:00,91,118
��Ƃ�̍L��,�����w����,2022/9/13,14:00,63,99
��Ƃ�̍L��,�����w����,2022/9/13,15:00,77,95
��Ƃ�̍L��,�����w����,2022/9/13,16:00,94,88
��Ƃ�̍L��,�����w����,2022/9/13,17:00,58,71
��Ƃ�̍L��,�����w����,2022/9/13,18:00,58,71
��Ƃ�̍L��,�����w����,2022/9/13,19:00,38,53
��Ƃ�̍L��,�����w����,2022/9/13,20:00,41,52
��Ƃ�̍L��,�����w����,2022/9/13,21:00,76,69
��Ƃ�̍L��,�����w����,2022/9/13,22:00,44,58
��Ƃ�̍L��,�����w����,2022/9/13,23:00,31,40
��Ƃ�̍L��,�����w����,2022/9/14,0:00,16,31
��Ƃ�̍L��,�����w����,2022/9/14,1:00,9,12
��Ƃ�̍L��,�����w����,2022/9/14,2:00,0,2
��Ƃ�̍L��,�����w����,2022/9/14,3:00,4,12
��Ƃ�̍L��,�����w����,2022/9/14,4:00,2,4
��Ƃ�̍L��,�����w����,2022/9/14,5:00,15,8
��Ƃ�̍L��,�����w����,2022/9/14,6:00,11,47
��Ƃ�̍L��,�����w����,2022/9/14,7:00,18,132
��Ƃ�̍L��,�����w����,2022/9/14,8:00,29,149
��Ƃ�̍L��,�����w����,2022/9/14,9:00,38,102
��Ƃ�̍L��,�����w����,2022/9/14,10:00,55,88
��Ƃ�̍L��,�����w����,2022/9/14,11:00,80,101
��Ƃ�̍L��,�����w����,2022/9/14,12:00,67,132
��Ƃ�̍L��,�����w����,2022/9/14,13:00,80,108
��Ƃ�̍L��,�����w����,2022/9/14,14:00,85,105
��Ƃ�̍L��,�����w����,2022/9/14,15:00,111,95
��Ƃ�̍L��,�����w����,2022/9/14,16:00,132,165
��Ƃ�̍L��,�����w����,2022/9/14,17:00,59,89
��Ƃ�̍L��,�����w����,2022/9/14,18:00,47,70
��Ƃ�̍L��,�����w����,2022/9/14,19:00,24,64
��Ƃ�̍L��,�����w����,2022/9/14,20:00,20,48
��Ƃ�̍L��,�����w����,2022/9/14,21:00,19,27
��Ƃ�̍L��,�����w����,2022/9/14,22:00,9,21
��Ƃ�̍L��,�����w����,2022/9/14,23:00,13,23
��Ƃ�̍L��,�����w����,2022/9/15,0:00,4,9
��Ƃ�̍L��,�����w����,2022/9/15,1:00,6,6
��Ƃ�̍L��,�����w����,2022/9/15,2:00,0,6
��Ƃ�̍L��,�����w����,2022/9/15,3:00,1,10
��Ƃ�̍L��,�����w����,2022/9/15,4:00,1,7
��Ƃ�̍L��,�����w����,2022/9/15,5:00,10,7
��Ƃ�̍L��,�����w����,2022/9/15,6:00,13,30
��Ƃ�̍L��,�����w����,2022/9/15,7:00,19,161
��Ƃ�̍L��,�����w����,2022/9/15,8:00,41,123
��Ƃ�̍L��,�����w����,2022/9/15,9:00,27,95
��Ƃ�̍L��,�����w����,2022/9/15,10:00,44,108
��Ƃ�̍L��,�����w����,2022/9/15,11:00,57,109
��Ƃ�̍L��,�����w����,2022/9/15,12:00,76,137
��Ƃ�̍L��,�����w����,2022/9/15,13:00,101,147
��Ƃ�̍L��,�����w����,2022/9/15,14:00,86,142
��Ƃ�̍L��,�����w����,2022/9/15,15:00,91,123
��Ƃ�̍L��,�����w����,2022/9/15,16:00,96,90
��Ƃ�̍L��,�����w����,2022/9/15,17:00,64,69
��Ƃ�̍L��,�����w����,2022/9/15,18:00,68,57
��Ƃ�̍L��,�����w����,2022/9/15,19:00,28,57
��Ƃ�̍L��,�����w����,2022/9/15,20:00,34,50
��Ƃ�̍L��,�����w����,2022/9/15,21:00,38,48
��Ƃ�̍L��,�����w����,2022/9/15,22:00,20,20
��Ƃ�̍L��,�����w����,2022/9/15,23:00,5,13
��Ƃ�̍L��,�����w����,2022/9/16,0:00,5,3
��Ƃ�̍L��,�����w����,2022/9/16,1:00,7,4
��Ƃ�̍L��,�����w����,2022/9/16,2:00,3,2
��Ƃ�̍L��,�����w����,2022/9/16,3:00,4,10
��Ƃ�̍L��,�����w����,2022/9/16,4:00,4,11
��Ƃ�̍L��,�����w����,2022/9/16,5:00,11,10
��Ƃ�̍L��,�����w����,2022/9/16,6:00,19,22
��Ƃ�̍L��,�����w����,2022/9/16,7:00,25,155
��Ƃ�̍L��,�����w����,2022/9/16,8:00,33,151
��Ƃ�̍L��,�����w����,2022/9/16,9:00,59,88
��Ƃ�̍L��,�����w����,2022/9/16,10:00,67,110
��Ƃ�̍L��,�����w����,2022/9/16,11:00,85,112
��Ƃ�̍L��,�����w����,2022/9/16,12:00,72,118
��Ƃ�̍L��,�����w����,2022/9/16,13:00,89,133
��Ƃ�̍L��,�����w����,2022/9/16,14:00,103,127
��Ƃ�̍L��,�����w����,2022/9/16,15:00,88,89
��Ƃ�̍L��,�����w����,2022/9/16,16:00,105,107
��Ƃ�̍L��,�����w����,2022/9/16,17:00,124,121
��Ƃ�̍L��,�����w����,2022/9/16,18:00,103,95
��Ƃ�̍L��,�����w����,2022/9/16,19:00,41,70
��Ƃ�̍L��,�����w����,2022/9/16,20:00,78,58
��Ƃ�̍L��,�����w����,2022/9/16,21:00,78,65
��Ƃ�̍L��,�����w����,2022/9/16,22:00,30,51
��Ƃ�̍L��,�����w����,2022/9/16,23:00,37,32
��Ƃ�̍L��,�����w����,2022/9/17,0:00,10,21
��Ƃ�̍L��,�����w����,2022/9/17,1:00,2,9
��Ƃ�̍L��,�����w����,2022/9/17,2:00,0,4
��Ƃ�̍L��,�����w����,2022/9/17,3:00,3,6
��Ƃ�̍L��,�����w����,2022/9/17,4:00,8,6
��Ƃ�̍L��,�����w����,2022/9/17,5:00,8,13
��Ƃ�̍L��,�����w����,2022/9/17,6:00,15,33
��Ƃ�̍L��,�����w����,2022/9/17,7:00,20,51
��Ƃ�̍L��,�����w����,2022/9/17,8:00,37,78
��Ƃ�̍L��,�����w����,2022/9/17,9:00,55,127
��Ƃ�̍L��,�����w����,2022/9/17,10:00,85,139
��Ƃ�̍L��,�����w����,2022/9/17,11:00,150,181
��Ƃ�̍L��,�����w����,2022/9/17,12:00,154,286
��Ƃ�̍L��,�����w����,2022/9/17,13:00,139,275
��Ƃ�̍L��,�����w����,2022/9/17,14:00,159,217
��Ƃ�̍L��,�����w����,2022/9/17,15:00,129,200
��Ƃ�̍L��,�����w����,2022/9/17,16:00,133,187
��Ƃ�̍L��,�����w����,2022/9/17,17:00,90,152
��Ƃ�̍L��,�����w����,2022/9/17,18:00,54,128
��Ƃ�̍L��,�����w����,2022/9/17,19:00,48,71
��Ƃ�̍L��,�����w����,2022/9/17,20:00,45,80
��Ƃ�̍L��,�����w����,2022/9/17,21:00,41,61
��Ƃ�̍L��,�����w����,2022/9/17,22:00,31,31
��Ƃ�̍L��,�����w����,2022/9/17,23:00,32,21
��Ƃ�̍L��,�����w����,2022/9/18,0:00,28,35
��Ƃ�̍L��,�����w����,2022/9/18,1:00,25,26
��Ƃ�̍L��,�����w����,2022/9/18,2:00,6,18
��Ƃ�̍L��,�����w����,2022/9/18,3:00,2,15
��Ƃ�̍L��,�����w����,2022/9/18,4:00,2,4
��Ƃ�̍L��,�����w����,2022/9/18,5:00,12,15
��Ƃ�̍L��,�����w����,2022/9/18,6:00,21,13
��Ƃ�̍L��,�����w����,2022/9/18,7:00,21,22
��Ƃ�̍L��,�����w����,2022/9/18,8:00,27,56
��Ƃ�̍L��,�����w����,2022/9/18,9:00,47,73
��Ƃ�̍L��,�����w����,2022/9/18,10:00,145,359
��Ƃ�̍L��,�����w����,2022/9/18,11:00,154,221
��Ƃ�̍L��,�����w����,2022/9/18,12:00,115,150
��Ƃ�̍L��,�����w����,2022/9/18,13:00,140,175
��Ƃ�̍L��,�����w����,2022/9/18,14:00,102,163
��Ƃ�̍L��,�����w����,2022/9/18,15:00,70,125
��Ƃ�̍L��,�����w����,2022/9/18,16:00,70,70
��Ƃ�̍L��,�����w����,2022/9/18,17:00,41,49
��Ƃ�̍L��,�����w����,2022/9/18,18:00,23,48
��Ƃ�̍L��,�����w����,2022/9/18,19:00,10,14
��Ƃ�̍L��,�����w����,2022/9/18,20:00,15,32
��Ƃ�̍L��,�����w����,2022/9/18,21:00,17,13
��Ƃ�̍L��,�����w����,2022/9/18,22:00,10,25
��Ƃ�̍L��,�����w����,2022/9/18,23:00,8,18
��Ƃ�̍L��,�����w����,2022/9/19,0:00,15,11
��Ƃ�̍L��,�����w����,2022/9/19,1:00,3,3
��Ƃ�̍L��,�����w����,2022/9/19,2:00,0,10
��Ƃ�̍L��,�����w����,2022/9/19,3:00,2,5
��Ƃ�̍L��,�����w����,2022/9/19,4:00,3,1
��Ƃ�̍L��,�����w����,2022/9/19,5:00,6,7
��Ƃ�̍L��,�����w����,2022/9/19,6:00,9,9
��Ƃ�̍L��,�����w����,2022/9/19,7:00,9,11
��Ƃ�̍L��,�����w����,2022/9/19,8:00,13,16
��Ƃ�̍L��,�����w����,2022/9/19,9:00,21,26
��Ƃ�̍L��,�����w����,2022/9/19,10:00,27,41
��Ƃ�̍L��,�����w����,2022/9/19,11:00,22,30
��Ƃ�̍L��,�����w����,2022/9/19,12:00,34,40
��Ƃ�̍L��,�����w����,2022/9/19,13:00,35,42
��Ƃ�̍L��,�����w����,2022/9/19,14:00,20,45
��Ƃ�̍L��,�����w����,2022/9/19,15:00,16,41
��Ƃ�̍L��,�����w����,2022/9/19,16:00,20,22
��Ƃ�̍L��,�����w����,2022/9/19,17:00,31,35
��Ƃ�̍L��,�����w����,2022/9/19,18:00,88,99
��Ƃ�̍L��,�����w����,2022/9/19,19:00,7,15
��Ƃ�̍L��,�����w����,2022/9/19,20:00,8,7
��Ƃ�̍L��,�����w����,2022/9/19,21:00,9,18
��Ƃ�̍L��,�����w����,2022/9/19,22:00,3,10
��Ƃ�̍L��,�����w����,2022/9/19,23:00,6,8
��Ƃ�̍L��,�����w����,2022/9/20,0:00,16,8
��Ƃ�̍L��,�����w����,2022/9/20,1:00,6,3
��Ƃ�̍L��,�����w����,2022/9/20,2:00,3,7
��Ƃ�̍L��,�����w����,2022/9/20,3:00,6,4
��Ƃ�̍L��,�����w����,2022/9/20,4:00,8,8
��Ƃ�̍L��,�����w����,2022/9/20,5:00,15,6
��Ƃ�̍L��,�����w����,2022/9/20,6:00,20,35
��Ƃ�̍L��,�����w����,2022/9/20,7:00,40,120
��Ƃ�̍L��,�����w����,2022/9/20,8:00,61,149
��Ƃ�̍L��,�����w����,2022/9/20,9:00,46,103
��Ƃ�̍L��,�����w����,2022/9/20,10:00,65,107
��Ƃ�̍L��,�����w����,2022/9/20,11:00,71,96
��Ƃ�̍L��,�����w����,2022/9/20,12:00,71,112
��Ƃ�̍L��,�����w����,2022/9/20,13:00,67,105
��Ƃ�̍L��,�����w����,2022/9/20,14:00,83,95
��Ƃ�̍L��,�����w����,2022/9/20,15:00,95,98
��Ƃ�̍L��,�����w����,2022/9/20,16:00,126,85
��Ƃ�̍L��,�����w����,2022/9/20,17:00,250,74
��Ƃ�̍L��,�����w����,2022/9/20,18:00,314,96
��Ƃ�̍L��,�����w����,2022/9/20,19:00,175,88
��Ƃ�̍L��,�����w����,2022/9/20,20:00,38,58
��Ƃ�̍L��,�����w����,2022/9/20,21:00,59,63
��Ƃ�̍L��,�����w����,2022/9/20,22:00,29,40
��Ƃ�̍L��,�����w����,2022/9/20,23:00,15,16
��Ƃ�̍L��,�����w����,2022/9/21,0:00,17,18
��Ƃ�̍L��,�����w����,2022/9/21,1:00,3,4
��Ƃ�̍L��,�����w����,2022/9/21,2:00,5,4
��Ƃ�̍L��,�����w����,2022/9/21,3:00,5,13
��Ƃ�̍L��,�����w����,2022/9/21,4:00,9,5
��Ƃ�̍L��,�����w����,2022/9/21,5:00,14,10
��Ƃ�̍L��,�����w����,2022/9/21,6:00,21,25
��Ƃ�̍L��,�����w����,2022/9/21,7:00,39,167
��Ƃ�̍L��,�����w����,2022/9/21,8:00,64,159
��Ƃ�̍L��,�����w����,2022/9/21,9:00,134,144
��Ƃ�̍L��,�����w����,2022/9/21,10:00,84,105
��Ƃ�̍L��,�����w����,2022/9/21,11:00,99,97
��Ƃ�̍L��,�����w����,2022/9/21,12:00,95,150
��Ƃ�̍L��,�����w����,2022/9/21,13:00,109,144
��Ƃ�̍L��,�����w����,2022/9/21,14:00,91,119
��Ƃ�̍L��,�����w����,2022/9/21,15:00,98,106
��Ƃ�̍L��,�����w����,2022/9/21,16:00,144,88
��Ƃ�̍L��,�����w����,2022/9/21,17:00,93,84
��Ƃ�̍L��,�����w����,2022/9/21,18:00,42,91
��Ƃ�̍L��,�����w����,2022/9/21,19:00,60,59
��Ƃ�̍L��,�����w����,2022/9/21,20:00,40,53
��Ƃ�̍L��,�����w����,2022/9/21,21:00,35,49
��Ƃ�̍L��,�����w����,2022/9/21,22:00,33,37
��Ƃ�̍L��,�����w����,2022/9/21,23:00,14,13
��Ƃ�̍L��,�����w����,2022/9/22,0:00,12,17
��Ƃ�̍L��,�����w����,2022/9/22,1:00,12,13
��Ƃ�̍L��,�����w����,2022/9/22,2:00,8,5
��Ƃ�̍L��,�����w����,2022/9/22,3:00,6,8
��Ƃ�̍L��,�����w����,2022/9/22,4:00,2,6
��Ƃ�̍L��,�����w����,2022/9/22,5:00,15,14
��Ƃ�̍L��,�����w����,2022/9/22,6:00,24,25
��Ƃ�̍L��,�����w����,2022/9/22,7:00,122,282
��Ƃ�̍L��,�����w����,2022/9/22,8:00,59,172
��Ƃ�̍L��,�����w����,2022/9/22,9:00,82,92
��Ƃ�̍L��,�����w����,2022/9/22,10:00,73,132
��Ƃ�̍L��,�����w����,2022/9/22,11:00,86,123
��Ƃ�̍L��,�����w����,2022/9/22,12:00,82,153
��Ƃ�̍L��,�����w����,2022/9/22,13:00,107,150
��Ƃ�̍L��,�����w����,2022/9/22,14:00,125,140
��Ƃ�̍L��,�����w����,2022/9/22,15:00,134,144
��Ƃ�̍L��,�����w����,2022/9/22,16:00,111,113
��Ƃ�̍L��,�����w����,2022/9/22,17:00,121,88
��Ƃ�̍L��,�����w����,2022/9/22,18:00,110,113
��Ƃ�̍L��,�����w����,2022/9/22,19:00,45,60
��Ƃ�̍L��,�����w����,2022/9/22,20:00,45,62
��Ƃ�̍L��,�����w����,2022/9/22,21:00,19,58
��Ƃ�̍L��,�����w����,2022/9/22,22:00,21,28
��Ƃ�̍L��,�����w����,2022/9/22,23:00,10,18
��Ƃ�̍L��,�����w����,2022/9/23,0:00,10,16
��Ƃ�̍L��,�����w����,2022/9/23,1:00,8,4
��Ƃ�̍L��,�����w����,2022/9/23,2:00,8,8
��Ƃ�̍L��,�����w����,2022/9/23,3:00,12,9
��Ƃ�̍L��,�����w����,2022/9/23,4:00,6,4
��Ƃ�̍L��,�����w����,2022/9/23,5:00,12,12
��Ƃ�̍L��,�����w����,2022/9/23,6:00,20,16
��Ƃ�̍L��,�����w����,2022/9/23,7:00,47,24
��Ƃ�̍L��,�����w����,2022/9/23,8:00,33,47
��Ƃ�̍L��,�����w����,2022/9/23,9:00,74,87
��Ƃ�̍L��,�����w����,2022/9/23,10:00,90,145
��Ƃ�̍L��,�����w����,2022/9/23,11:00,175,191
��Ƃ�̍L��,�����w����,2022/9/23,12:00,227,274
��Ƃ�̍L��,�����w����,2022/9/23,13:00,287,351
��Ƃ�̍L��,�����w����,2022/9/23,14:00,240,290
��Ƃ�̍L��,�����w����,2022/9/23,15:00,192,233
��Ƃ�̍L��,�����w����,2022/9/23,16:00,166,202
��Ƃ�̍L��,�����w����,2022/9/23,17:00,134,165
��Ƃ�̍L��,�����w����,2022/9/23,18:00,60,103
��Ƃ�̍L��,�����w����,2022/9/23,19:00,42,42
��Ƃ�̍L��,�����w����,2022/9/23,20:00,27,48
��Ƃ�̍L��,�����w����,2022/9/23,21:00,57,43
��Ƃ�̍L��,�����w����,2022/9/23,22:00,15,24
��Ƃ�̍L��,�����w����,2022/9/23,23:00,15,10
��Ƃ�̍L��,�����w����,2022/9/24,0:00,30,25
��Ƃ�̍L��,�����w����,2022/9/24,1:00,25,32
��Ƃ�̍L��,�����w����,2022/9/24,2:00,19,23
��Ƃ�̍L��,�����w����,2022/9/24,3:00,6,12
��Ƃ�̍L��,�����w����,2022/9/24,4:00,5,6
��Ƃ�̍L��,�����w����,2022/9/24,5:00,9,11
��Ƃ�̍L��,�����w����,2022/9/24,6:00,23,21
��Ƃ�̍L��,�����w����,2022/9/24,7:00,22,49
��Ƃ�̍L��,�����w����,2022/9/24,8:00,39,74
��Ƃ�̍L��,�����w����,2022/9/24,9:00,68,124
��Ƃ�̍L��,�����w����,2022/9/24,10:00,171,206
��Ƃ�̍L��,�����w����,2022/9/24,11:00,209,303
��Ƃ�̍L��,�����w����,2022/9/24,12:00,307,334
��Ƃ�̍L��,�����w����,2022/9/24,13:00,247,341
��Ƃ�̍L��,�����w����,2022/9/24,14:00,240,383
��Ƃ�̍L��,�����w����,2022/9/24,15:00,223,239
��Ƃ�̍L��,�����w����,2022/9/24,16:00,206,234
��Ƃ�̍L��,�����w����,2022/9/24,17:00,141,164
��Ƃ�̍L��,�����w����,2022/9/24,18:00,77,118
��Ƃ�̍L��,�����w����,2022/9/24,19:00,42,83
��Ƃ�̍L��,�����w����,2022/9/24,20:00,47,84
��Ƃ�̍L��,�����w����,2022/9/24,21:00,58,48
��Ƃ�̍L��,�����w����,2022/9/24,22:00,37,25